CW6666 Weather Reports


Display with metric or nautical units.
time (UTC)temp
F
wind
direction
speed
MPH
gust
MPH
rain 1hr
in
rain 24hr
in
rain mn
in
humidity
%
barometer
mb
20150830223116 85 94 0.0 0.0 0.00 0.00 0.00 83 1007.8
20150830222617 85 104 0.0 0.0 0.00 0.00 0.00 83 1007.8
20150830222117 85 105 0.0 0.0 0.00 0.00 0.00 82 1007.8
20150830221617 85 105 0.0 0.0 0.00 0.00 0.00 82 1007.8
20150830221117 85 106 0.0 0.0 0.00 0.00 0.00 82 1007.7
20150830220616 85 112 0.0 0.0 0.00 0.00 0.00 84 1007.7
20150830220117 85 123 0.0 0.0 0.00 0.00 0.00 84 1007.7
20150830215617 84 123 0.0 0.0 0.00 0.00 0.00 84 1007.6
20150830215117 84 99 0.0 0.0 0.00 0.00 0.00 84 1007.6
20150830214617 84 34 0.0 0.0 0.00 0.00 0.00 85 1007.6
20150830214117 84 34 0.0 0.0 0.00 0.00 0.00 85 1007.4
20150830213617 84 34 0.0 0.0 0.00 0.00 0.00 86 1007.4
20150830213117 83 34 0.0 0.0 0.00 0.00 0.00 87 1007.4
20150830212617 83 34 0.0 0.0 0.00 0.00 0.00 89 1007.2
20150830212117 83 34 0.0 0.0 0.00 0.00 0.00 90 1007.2
20150830211617 83 34 0.0 0.0 0.00 0.00 0.00 91 1007.2
20150830211117 82 34 0.0 0.0 0.00 0.00 0.00 92 1007.1
20150830210617 82 34 0.0 0.0 0.00 0.00 0.00 93 1007.1
20150830210117 81 34 0.0 0.0 0.00 0.00 0.00 94 1007.1
20150830205617 81 34 0.0 0.0 0.00 0.00 0.00 94 1007.0
20150830205117 80 34 0.0 0.0 0.00 0.00 0.00 94 1007.0
20150830204617 80 34 0.0 0.0 0.00 0.00 0.00 94 1007.0
20150830204117 80 34 0.0 0.0 0.00 0.00 0.00 94 1006.7
20150830203616 80 34 0.0 0.0 0.00 0.00 0.00 94 1006.7
20150830203117 80 34 0.0 0.0 0.00 0.00 0.00 93 1006.7
20150830202617 80 34 0.0 0.0 0.00 0.00 0.00 93 1006.8
20150830202117 80 34 0.0 0.0 0.00 0.00 0.00 93 1006.8
20150830201617 80 34 0.0 0.0 0.00 0.00 0.00 93 1006.8
20150830201117 80 34 0.0 0.0 0.00 0.00 0.00 92 1006.8
20150830200617 80 34 0.0 0.0 0.00 0.00 0.00 92 1006.8
20150830200117 80 34 0.0 0.0 0.00 0.00 0.00 92 1006.8
20150830195617 81 34 0.0 0.0 0.00 0.00 0.00 91 1006.8
20150830195117 81 34 0.0 0.0 0.00 0.00 0.00 91 1006.8
20150830194617 81 34 0.0 0.0 0.00 0.00 0.00 91 1006.8
20150830194117 81 34 0.0 0.0 0.00 0.00 0.00 91 1006.8
20150830193616 82 34 0.0 0.0 0.00 0.00 0.00 91 1006.8
20150830193117 82 34 0.0 0.0 0.00 0.00 0.00 90 1006.8
20150830192617 82 34 0.0 5.0 0.00 0.00 0.00 91 1006.7
20150830192117 82 34 0.0 6.0 0.00 0.00 0.00 91 1006.7
20150830191617 82 32 2.0 7.0 0.00 0.00 0.00 91 1006.7
20150830191117 82 33 5.0 7.0 0.00 0.00 0.00 90 1006.7
20150830190617 82 41 7.0 7.0 0.00 0.00 0.00 90 1006.7
20150830190117 82 56 4.0 7.0 0.00 0.00 0.00 90 1006.7
20150830185616 82 76 5.0 9.0 0.00 0.00 0.00 90 1006.7
20150830185117 82 59 6.0 9.0 0.00 0.00 0.00 89 1006.7
20150830184617 82 65 5.0 5.0 0.00 0.00 0.00 89 1006.7
20150830184117 82 90 2.0 6.0 0.00 0.00 0.00 89 1006.6
20150830183617 82 91 4.0 7.0 0.00 0.00 0.00 90 1006.6
20150830183117 82 87 5.0 10.0 0.00 0.00 0.00 91 1006.6
20150830182617 82 81 7.0 11.0 0.00 0.00 0.00 91 1006.6
20150830182117 82 69 7.0 12.0 0.00 0.00 0.00 91 1006.6
20150830181617 82 52 10.0 12.0 0.00 0.00 0.00 91 1006.6
20150830181117 82 44 9.0 12.0 0.00 0.00 0.00 91 1006.7
20150830180617 82 47 10.0 11.0 0.00 0.00 0.00 91 1006.7
20150830180117 82 52 10.0 11.0 0.00 0.00 0.00 92 1006.7
20150830175617 81 49 7.0 12.0 0.00 0.00 0.00 91 1006.7
20150830175117 81 55 8.0 12.0 0.00 0.00 0.00 92 1006.7
20150830174617 81 41 9.0 13.0 0.00 0.00 0.00 92 1006.7
20150830174117 81 70 10.0 14.0 0.00 0.00 0.00 92 1006.7
20150830173617 81 61 13.0 14.0 0.00 0.00 0.00 93 1006.7
20150830173117 80 83 5.0 11.0 0.00 0.00 0.00 94 1006.7
20150830172617 79 64 10.0 11.0 0.00 0.00 0.00 95 1007.1
20150830172117 79 184 0.0 0.0 0.00 0.00 0.00 94 1007.1
20150830171617 79 184 0.0 0.0 0.00 0.00 0.00 94 1007.1
20150830171117 79 184 0.0 0.0 0.00 0.00 0.00 94 1007.2
20150830170617 79 184 0.0 0.0 0.00 0.00 0.00 94 1007.2
20150830170117 79 184 0.0 0.0 0.00 0.00 0.00 94 1007.2
20150830165617 79 184 0.0 0.0 0.00 0.00 0.00 93 1007.3
20150830165117 79 184 0.0 0.0 0.00 0.00 0.00 93 1007.3
20150830164617 79 184 0.0 0.0 0.00 0.00 0.00 93 1007.3
20150830164117 79 184 0.0 0.0 0.00 0.00 0.00 93 1007.3
20150830163617 78 184 0.0 0.0 0.00 0.00 0.00 93 1007.3
20150830163117 78 184 0.0 1.0 0.00 0.00 0.00 93 1007.3
20150830162617 78 184 0.0 2.0 0.00 0.00 0.00 93 1007.4
20150830162117 78 184 0.0 2.0 0.00 0.00 0.00 93 1007.4
20150830161617 78 184 0.0 2.0 0.00 0.00 0.00 93 1007.4
20150830161117 78 184 0.0 0.0 0.00 0.00 0.00 93 1007.4
20150830160617 79 184 0.0 0.0 0.00 0.00 0.00 93 1007.4
20150830160117 79 184 0.0 0.0 0.00 0.00 0.00 93 1007.4
20150830155617 79 184 0.0 0.0 0.00 0.00 0.00 93 1007.6
20150830155117 79 184 0.0 0.0 0.00 0.00 0.00 93 1007.6
20150830154617 79 184 0.0 0.0 0.00 0.00 0.00 93 1007.6
20150830154117 79 184 0.0 0.0 0.00 0.00 0.00 92 1007.7
20150830153617 79 184 0.0 1.0 0.00 0.00 0.00 92 1007.7
20150830153117 79 184 0.0 1.0 0.00 0.00 0.00 92 1007.7
20150830152617 79 184 0.0 0.0 0.00 0.00 0.00 92 1007.5
20150830152117 80 184 0.0 1.0 0.00 0.00 0.00 92 1007.5
20150830151617 80 184 0.0 2.0 0.00 0.00 0.00 92 1007.5
20150830151117 80 184 0.0 2.0 0.00 0.00 0.00 92 1007.6
20150830150617 80 184 0.0 1.0 0.00 0.00 0.00 92 1007.6
20150830150117 80 184 0.0 1.0 0.00 0.00 0.00 92 1007.6
20150830145617 80 184 0.0 2.0 0.00 0.00 0.00 92 1007.7
20150830145117 80 184 0.0 3.0 0.00 0.00 0.00 92 1007.7
20150830144617 80 184 1.0 3.0 0.00 0.00 0.00 92 1007.7
20150830144117 80 184 0.0 4.0 0.00 0.00 0.00 92 1007.9
20150830143617 80 188 2.0 8.0 0.00 0.00 0.00 93 1007.9
20150830143117 80 150 4.0 8.0 0.00 0.00 0.00 93 1007.9
20150830142617 79 119 1.0 11.0 0.00 0.00 0.00 94 1008.1
20150830142117 80 131 4.0 11.0 0.00 0.00 0.00 95 1008.1
20150830141617 79 88 0.0 0.0 0.00 0.00 0.00 95 1008.1
20150830141117 79 313 0.0 0.0 0.00 0.00 0.00 95 1008.1
20150830140617 79 313 0.0 0.0 0.00 0.00 0.00 95 1008.1
20150830140147 79 313 0.0 0.0 0.00 0.00 0.00 95 1008.1
20150830135617 79 313 0.0 0.0 0.00 0.00 0.00 95 1008.2
20150830135117 79 313 0.0 0.0 0.00 0.00 0.00 95 1008.2
20150830134617 79 313 0.0 0.0 0.00 0.00 0.00 95 1008.2
20150830134117 79 313 0.0 0.0 0.00 0.00 0.00 95 1008.2
20150830133617 79 146 0.0 0.0 0.00 0.00 0.00 95 1008.2
20150830133117 79 146 0.0 0.0 0.00 0.00 0.00 95 1008.2
20150830132617 79 146 0.0 0.0 0.00 0.00 0.00 95 1008.6
20150830132117 79 141 0.0 0.0 0.00 0.00 0.00 95 1008.6
20150830131617 78 169 0.0 0.0 0.00 0.00 0.00 95 1008.6
20150830131117 78 303 0.0 0.0 0.00 0.00 0.00 95 1008.4
20150830130617 78 303 0.0 0.0 0.00 0.00 0.00 95 1008.4
20150830130117 78 303 0.0 0.0 0.00 0.00 0.00 95 1008.4
20150830125617 78 303 0.0 0.0 0.00 0.00 0.00 95 1008.5
20150830125117 78 303 0.0 0.0 0.00 0.00 0.00 95 1008.5
20150830124617 78 303 0.0 0.0 0.00 0.00 0.00 95 1008.5
20150830124117 78 303 0.0 0.0 0.00 0.00 0.00 95 1008.3
20150830123617 78 303 0.0 0.0 0.00 0.00 0.00 95 1008.3
20150830123117 78 303 0.0 0.0 0.00 0.00 0.00 95 1008.3
20150830122617 78 303 0.0 0.0 0.00 0.00 0.00 95 1008.2
20150830122117 78 303 0.0 0.0 0.00 0.00 0.00 95 1008.2
20150830121617 78 303 0.0 0.0 0.00 0.00 0.00 95 1008.2
20150830121117 78 303 0.0 0.0 0.00 0.00 0.00 95 1008.2
20150830120617 78 303 0.0 0.0 0.00 0.00 0.00 94 1008.2
20150830120117 78 303 0.0 0.0 0.00 0.00 0.00 94 1008.2
20150830115617 79 303 0.0 0.0 0.00 0.00 0.00 94 1008.2
20150830115117 79 303 0.0 0.0 0.00 0.00 0.00 94 1008.2
20150830114617 79 303 0.0 0.0 0.00 0.00 0.00 94 1008.2
20150830114117 79 303 0.0 0.0 0.00 0.00 0.00 94 1007.9
20150830113617 79 303 0.0 0.0 0.00 0.00 0.00 94 1007.9
20150830113117 79 303 0.0 0.0 0.00 0.00 0.00 94 1007.9
20150830112617 79 303 0.0 0.0 0.00 0.00 0.00 94 1007.7
20150830112117 79 303 0.0 0.0 0.00 0.00 0.00 94 1007.7
20150830111617 79 303 0.0 0.0 0.00 0.00 0.00 93 1007.7
20150830111117 79 303 0.0 0.0 0.00 0.00 0.00 93 1007.7
20150830110617 80 303 0.0 0.0 0.00 0.00 0.00 94 1007.7
20150830110118 80 303 0.0 0.0 0.00 0.00 0.00 94 1007.7
20150830105617 80 303 0.0 0.0 0.00 0.00 0.00 94 1007.6
20150830105117 80 303 0.0 0.0 0.00 0.00 0.00 94 1007.6
20150830104617 80 303 0.0 0.0 0.00 0.00 0.00 94 1007.6
20150830104117 80 303 0.0 0.0 0.00 0.00 0.00 94 1007.3
20150830103617 80 303 0.0 0.0 0.00 0.00 0.00 94 1007.3
20150830103117 80 303 0.0 0.0 0.00 0.00 0.00 93 1007.3
20150830102617 80 303 0.0 0.0 0.00 0.00 0.00 93 1007.1
20150830102118 80 303 0.0 0.0 0.00 0.00 0.00 93 1007.1
20150830101617 80 303 0.0 0.0 0.00 0.00 0.00 93 1007.1
20150830101117 80 303 0.0 0.0 0.00 0.00 0.00 93 1006.9
20150830100617 80 303 0.0 0.0 0.00 0.00 0.00 93 1006.9
20150830100117 80 303 0.0 0.0 0.00 0.00 0.00 93 1006.9
20150830095617 80 303 0.0 0.0 0.00 0.00 0.00 93 1006.6
20150830095117 80 303 0.0 0.0 0.00 0.00 0.00 92 1006.6
20150830094617 80 303 0.0 0.0 0.00 0.00 0.00 92 1006.6
20150830094117 80 303 0.0 3.0 0.00 0.00 0.00 92 1006.3
20150830093617 80 303 0.0 3.0 0.00 0.00 0.00 92 1006.3
20150830093117 80 76 0.0 1.0 0.00 0.00 0.00 92 1006.3
20150830092617 80 76 0.0 0.0 0.00 0.00 0.00 91 1006.1
20150830092117 80 76 0.0 0.0 0.00 0.00 0.00 91 1006.1
20150830091617 80 76 0.0 0.0 0.00 0.00 0.00 91 1006.1
20150830091117 80 76 0.0 0.0 0.00 0.00 0.00 90 1006.1
20150830090617 81 76 0.0 0.0 0.00 0.00 0.00 90 1006.1
20150830090117 81 76 0.0 0.0 0.00 0.00 0.00 89 1006.1
20150830085617 82 76 0.0 0.0 0.00 0.00 0.00 89 1006.0
20150830085117 82 76 0.0 0.0 0.00 0.00 0.00 88 1006.0
20150830084617 82 76 0.0 0.0 0.00 0.00 0.00 87 1006.0
20150830084117 83 76 0.0 0.0 0.00 0.00 0.00 87 1005.8
20150830083617 84 76 0.0 0.0 0.00 0.00 0.00 86 1005.8
20150830083117 84 76 0.0 0.0 0.00 0.00 0.00 84 1005.8
20150830082617 85 76 0.0 0.0 0.00 0.00 0.00 83 1005.8
20150830082117 85 76 0.0 1.0 0.00 0.00 0.00 81 1005.8
20150830081617 86 76 0.0 1.0 0.00 0.00 0.00 80 1005.8
20150830081117 86 76 1.0 2.0 0.00 0.00 0.00 76 1005.7
20150830080617 86 76 0.0 2.0 0.00 0.00 0.00 76 1005.7
20150830080117 86 76 1.0 2.0 0.00 0.00 0.00 77 1005.7
20150830075617 86 76 0.0 3.0 0.00 0.00 0.00 76 1005.7
20150830075117 86 76 1.0 3.0 0.00 0.00 0.00 76 1005.7
20150830074617 86 76 0.0 3.0 0.00 0.00 0.00 75 1005.7
20150830074117 86 76 0.0 3.0 0.00 0.00 0.00 75 1005.7
20150830073617 86 76 3.0 3.0 0.00 0.00 0.00 77 1005.7
20150830073117 86 76 1.0 3.0 0.00 0.00 0.00 76 1005.7
20150830072617 86 76 0.0 3.0 0.00 0.00 0.00 76 1005.8
20150830072117 86 76 0.0 4.0 0.00 0.00 0.00 76 1005.8
20150830071617 86 76 1.0 4.0 0.00 0.00 0.00 75 1005.8
20150830071117 86 76 3.0 5.0 0.00 0.00 0.00 76 1005.8
20150830070617 87 76 2.0 5.0 0.00 0.00 0.00 76 1005.8
20150830070117 87 76 1.0 4.0 0.00 0.00 0.00 76 1005.8
20150830065617 87 76 2.0 5.0 0.00 0.00 0.00 76 1005.7
20150830065117 87 74 2.0 5.0 0.00 0.00 0.00 76 1005.7
20150830064617 87 65 2.0 5.0 0.00 0.00 0.00 75 1005.7
20150830064117 87 78 4.0 5.0 0.00 0.00 0.00 76 1005.7
20150830063617 87 86 3.0 5.0 0.00 0.00 0.00 76 1005.7
20150830063117 87 86 2.0 5.0 0.00 0.00 0.00 76 1005.7
20150830062617 87 57 4.0 6.0 0.00 0.00 0.00 76 1005.8
20150830062117 87 65 3.0 6.0 0.00 0.00 0.00 75 1005.8
20150830061617 87 69 4.0 5.0 0.00 0.00 0.00 75 1005.8
20150830061117 87 84 3.0 5.0 0.00 0.00 0.00 74 1005.7
20150830060617 87 93 3.0 6.0 0.00 0.00 0.00 75 1005.7
20150830060117 87 93 3.0 6.0 0.00 0.00 0.00 74 1005.7
20150830055617 88 82 4.0 6.0 0.00 0.00 0.00 75 1005.6
20150830055117 88 86 2.0 5.0 0.00 0.00 0.00 75 1005.6
20150830054617 88 98 3.0 6.0 0.00 0.00 0.00 77 1005.6
20150830054117 88 97 3.0 7.0 0.00 0.00 0.00 76 1005.7
20150830053617 88 102 4.0 7.0 0.00 0.00 0.00 75 1005.7
20150830053117 88 89 5.0 7.0 0.00 0.00 0.00 74 1005.7
20150830052617 88 86 4.0 6.0 0.00 0.00 0.00 75 1005.7
20150830052120 88 88 5.0 7.0 0.00 0.00 0.00 76 1005.7
20150830051620 88 103 3.0 7.0 0.00 0.00 0.00 75 1005.7
20150830051123 88 105 5.0 7.0 0.00 0.00 0.00 76 1005.8
20150830050620 88 90 2.0 7.0 0.00 0.00 0.00 75 1005.8
20150830050120 88 110 4.0 6.0 0.00 0.00 0.00 74 1005.8
20150830045620 88 114 2.0 5.0 0.00 0.00 0.00 75 1005.8
20150830045119 88 99 3.0 7.0 0.00 0.00 0.00 76 1005.8
20150830044619 88 101 5.0 7.0 0.00 0.00 0.00 75 1005.8
20150830044120 88 115 3.0 7.0 0.00 0.00 0.00 76 1006.1
20150830043619 88 111 3.0 7.0 0.00 0.00 0.00 76 1006.1
20150830043121 88 82 3.0 7.0 0.00 0.00 0.00 74 1006.1
20150830042619 88 131 3.0 7.0 0.00 0.00 0.00 73 1006.2
20150830042119 88 127 1.0 7.0 0.00 0.00 0.00 75 1006.2
20150830041619 88 90 4.0 7.0 0.00 0.00 0.00 76 1006.2
20150830041120 88 88 4.0 7.0 0.00 0.00 0.00 75 1006.3
20150830040620 88 94 4.0 7.0 0.00 0.00 0.00 75 1006.3
20150830040120 88 100 4.0 7.0 0.00 0.00 0.00 75 1006.3
20150830035619 88 98 4.0 7.0 0.00 0.00 0.00 74 1006.5
20150830035122 88 101 5.0 7.0 0.00 0.00 0.00 75 1006.5
20150830034623 88 92 6.0 7.0 0.00 0.00 0.00 76 1006.5
20150830034119 88 92 3.0 7.0 0.00 0.00 0.00 75 1006.7
20150830033619 88 110 5.0 7.0 0.00 0.00 0.00 74 1006.7
20150830033120 88 98 3.0 6.0 0.00 0.00 0.00 74 1006.7
20150830032629 88 90 3.0 6.0 0.00 0.00 0.00 75 1006.7
20150830032119 88 109 6.0 6.0 0.00 0.00 0.00 77 1006.7
20150830031622 87 86 6.0 6.0 0.00 0.00 0.00 76 1006.7
20150830031121 87 82 5.0 6.0 0.00 0.00 0.00 75 1007.0
20150830030620 88 114 5.0 6.0 0.00 0.00 0.00 76 1007.0
20150830030120 87 98 4.0 6.0 0.00 0.00 0.00 74 1007.0
20150830025621 88 85 6.0 6.0 0.00 0.00 0.00 75 1007.2
20150830025122 88 101 5.0 7.0 0.00 0.00 0.00 75 1007.2
20150830024621 88 103 4.0 7.0 0.00 0.00 0.00 76 1007.2
20150830024119 88 101 5.0 6.0 0.00 0.00 0.00 76 1007.5
20150830023622 88 100 5.0 7.0 0.00 0.00 0.00 74 1007.5
20150830023120 87 96 4.0 7.0 0.00 0.00 0.00 74 1007.5
20150830022620 88 96 2.0 6.0 0.00 0.00 0.00 75 1007.6
20150830022119 88 89 4.0 7.0 0.00 0.00 0.00 75 1007.6
20150830021622 88 110 4.0 7.0 0.00 0.00 0.00 77 1007.6
20150830021120 88 90 6.0 7.0 0.00 0.00 0.00 76 1007.7
20150830020621 88 98 5.0 7.0 0.00 0.00 0.00 76 1007.7
20150830020120 88 111 5.0 7.0 0.00 0.00 0.00 75 1007.7
20150830015620 88 112 5.0 7.0 0.00 0.00 0.00 78 1007.8
20150830015120 88 115 3.0 7.0 0.00 0.00 0.00 76 1007.8
20150830014620 87 116 5.0 6.0 0.00 0.00 0.00 75 1007.8
20150830014117 87 97 6.0 6.0 0.00 0.00 0.00 75 1007.8
20150830013617 87 98 4.0 7.0 0.00 0.00 0.00 74 1007.8
20150830013117 88 102 2.0 7.0 0.00 0.00 0.00 73 1007.8
20150830012617 88 90 6.0 7.0 0.00 0.00 0.00 73 1008.0
20150830012117 88 98 4.0 6.0 0.00 0.00 0.00 74 1008.0
20150830011617 88 107 5.0 7.0 0.00 0.00 0.00 76 1008.0
20150830011117 88 106 5.0 7.0 0.00 0.00 0.00 76 1008.1
20150830010617 88 103 4.0 6.0 0.00 0.00 0.00 74 1008.1
20150830010117 88 122 3.0 6.0 0.00 0.00 0.00 75 1008.1
20150830005617 88 105 3.0 6.0 0.00 0.00 0.00 74 1008.1
20150830005117 88 98 4.0 6.0 0.00 0.00 0.00 73 1008.1
20150830004617 87 119 5.0 5.0 0.00 0.00 0.00 71 1008.1
20150830004117 87 103 0.0 0.0 0.00 0.00 0.00 73 1008.0
20150830003617 87 93 0.0 0.0 0.00 0.00 0.00 73 1008.0
20150830003117 87 78 0.0 0.0 0.00 0.00 0.00 73 1008.0
20150830002617 87 83 0.0 0.0 0.00 0.00 0.00 76 1008.0
20150830002117 87 76 0.0 0.0 0.00 0.00 0.00 72 1008.0
20150830001617 87 75 0.0 0.0 0.00 0.00 0.00 76 1008.0
20150830001117 87 75 0.0 0.0 0.00 0.00 0.00 77 1008.1
20150830000617 87 75 0.0 0.0 0.00 0.00 0.00 77 1008.1
20150830000117 87 74 0.0 0.0 0.00 0.00 0.00 77 1008.1
20150829235617 87 94 0.0 0.0 0.00 0.00 0.00 78 1008.1
20150829235117 87 94 0.0 0.0 0.00 0.00 0.00 78 1008.1
20150829234617 87 94 0.0 0.0 0.00 0.00 0.00 78 1008.1
20150829234117 87 94 0.0 0.0 0.00 0.00 0.00 79 1008.1
20150829233617 86 94 0.0 0.0 0.00 0.00 0.00 78 1008.1
20150829233117 86 94 0.0 0.0 0.00 0.00 0.00 79 1008.1
20150829232617 86 94 0.0 0.0 0.00 0.00 0.00 78 1008.1
20150829232117 86 94 0.0 0.0 0.00 0.00 0.00 78 1008.1
20150829231617 86 94 0.0 0.0 0.00 0.00 0.00 79 1008.1
20150829231117 86 94 0.0 0.0 0.00 0.00 0.00 79 1008.1
20150829230617 86 94 0.0 0.0 0.00 0.00 0.00 80 1008.1
20150829230117 86 94 0.0 0.0 0.00 0.00 0.00 80 1008.1
20150829225617 86 94 0.0 0.0 0.00 0.00 0.00 81 1008.0
20150829225117 86 94 0.0 0.0 0.00 0.00 0.00 80 1008.0
20150829224617 86 94 0.0 0.0 0.00 0.00 0.00 81 1008.0
20150829224117 86 94 0.0 0.0 0.00 0.00 0.00 80 1007.8
20150829223617 86 94 0.0 0.0 0.00 0.00 0.00 80 1007.8